Regional Weather Roundup
Issued by NWS

Home | Current Version | Previous Version | Graphics & Text | Print | Product List | Glossary Off
Versions: 1 2 3 4 5 6 7 8 9 10 11 12 13 14 15 16 17 18 19 20 21 22 23 24 25 26 27 28 29 30 31 32 33 34 35 36 37 38 39 40 41 42 43 44 45 46 47 48 49 50

000
ASUS43 KTOP 261159
RWRKS

WEATHER ROUNDUP FOR KANSAS
NATIONAL WEATHER SERVICE GOODLAND KS
700 AM CDT THU MAR 26 2015

NOTE:  "FAIR" INDICATES FEW OR NO CLOUDS BELOW 12,000 FEET WITH NO
SIGNIFICANT WEATHER AND/OR OBSTRUCTIONS TO VISIBILITY.

KSZ001>006-013>018-027>032-041>047-261300-
NORTHWEST KANSAS

CITY           SKY/WX    TMP DP  RH WIND       PRES   REMARKS
GOODLAND       PTCLDY    28  26  92 W8        30.20S
6HR MIN TEMP:  25; 6HR MAX TEMP:  30;

HAYS           CLEAR     27  18  69 NW6       30.25S
HILL CITY      CLEAR     24  19  81 W3        30.25S
6HR MIN TEMP:  23; 6HR MAX TEMP:  30;

RUSSELL        CLEAR     26  23  88 W5        30.24R
6HR MIN TEMP:  24; 6HR MAX TEMP:  35;

$$

KSZ061>065-074>080-084>089-261300-
SOUTHWEST KANSAS

CITY           SKY/WX    TMP DP  RH WIND       PRES   REMARKS
DODGE CITY     CLEAR     27  23  85 NW7       30.25R
6HR MIN TEMP:  26; 6HR MAX TEMP:  35;

ELKHART          N/A     33  27  79 W7          N/A
GARDEN CITY    CLEAR     26  24  92 N5        30.24S
6HR MIN TEMP:  25; 6HR MAX TEMP:  33;

GREAT BEND     CLEAR     28  21  74 NW5       30.26R
LIBERAL        CLEAR     30  25  80 NW5       30.27R
$$

KSZ066>073-081>083-090>101-261300-
SOUTHEAST KANSAS

CITY           SKY/WX    TMP DP  RH WIND       PRES   REMARKS
CHANUTE        CLOUDY    38  33  82 N13       30.19R WCI  30
6HR MIN TEMP:  38; 6HR MAX TEMP:  43; 6HR PCP:  0.01;

COFFEYVILLE    CLOUDY    40  35  83 N13       30.18R WCI  32
6HR MIN TEMP:  40; 6HR MAX TEMP:  45; 6HR PCP:  0.01;

HUTCHINSON     CLEAR     33  26  75 N9        30.24R
6HR MIN TEMP:  33; 6HR MAX TEMP:  41;

MEDICINE LODGE   N/A     34  30  85 N9        30.24R
NEWTON         CLEAR     32  25  74 N9        30.24R
PARSONS        CLOUDY    40  35  83 N9        30.19R
6HR MIN TEMP:  40; 6HR MAX TEMP:  45; 6HR PCP: TRACE;

WICHITA INTL   PTCLDY    37  32  82 N12       30.22R WCI  29
6HR MIN TEMP:  36; 6HR MAX TEMP:  41; 6HR PCP: TRACE;

WICHITA JABRA  PTCLDY    34  31  88 N10       30.21S WCI  26
6HR MIN TEMP:  34; 6HR MAX TEMP:  40;

WINFIELD       PTCLDY    34  30  85 N8        30.21R
6HR MIN TEMP:  34; 6HR MAX TEMP:  42; 6HR PCP: TRACE;

$$

KSZ007>012-019>026-033>040-048>060-102>105-261300-
NORTHEAST KANSAS

CITY           SKY/WX    TMP DP  RH WIND       PRES   REMARKS
CONCORDIA      CLEAR     26  23  88 NW7       30.25R
6HR MIN TEMP:  26; 6HR MAX TEMP:  36;

EMPORIA        PTCLDY    32  29  88 NW8       30.21R
6HR MIN TEMP:  32; 6HR MAX TEMP:  39;

LAWRENCE       CLEAR     29  26  89 NW9       30.22R
6HR MIN TEMP:  29; 6HR MAX TEMP:  40;

MANHATTAN      CLEAR     30  27  88 N3        30.25R
6HR MIN TEMP:  30; 6HR MAX TEMP:  39;

OLATHE IND     PTCLDY    33  30  88 N12       30.20R WCI  24
6HR MIN TEMP:  33; 6HR MAX TEMP:  39;

OLATHE EXE     PTCLDY    35  30  82 N9        30.18R
6HR MIN TEMP:  35; 6HR MAX TEMP:  41;

SALINA         CLEAR     29  25  85 NW8       30.26R
6HR MIN TEMP:  29; 6HR MAX TEMP:  40;

TOPEKA BILLARD CLEAR     32  28  85 NW6       30.23R
6HR MIN TEMP:  32; 6HR MAX TEMP:  40;

TOPEKA FORBES  FAIR      34  29  82 N8        30.21R
6HR MIN TEMP:  34; 6HR MAX TEMP:  41;

$$



USA.gov is the U.S. government's official web portal to all federal, state and local government web resources and services.